Starlink 11146

operational
NORAD ID: 60729 Int'l Des: 2024-152 Owner: SPXS Country: US Constellation: starlink
LEOCIRCULAR

Starlink 11146について

説明を読み込み中...

リアルタイム位置

3D地球を読み込み中...

次回通過

高度履歴

Altitude vs Time

uPlot chart will show altitude changes over time

軌道要素

1 60729U 24152K 25259.71929128 -.00002687 00000-0 -17350-4 0 9995
2 60729 53.1608 253.6655 0001124 71.6250 288.4890 15.69684185 61649
Epoch: Sep 16, 2025 • Age: 29 hours

現在のステータス

高度 365.6 km
速度 7.70 km/s
衛星直下点 53.19°N, 4.94°W
打ち上げ日 Aug 28, 2024
運用期間 1 years
タイプ internet

技術仕様

分類 Payload
質量 960.00 kg
乾燥質量 910.00 kg
総質量 960.00 kg
長さ 0.30 m
直径 4.10 m
スパン 29.00 m
形状 Box + pan
製造者 SPXS
バスタイプ Starlink V2MD
フェーズステータス In Orbit
所有者/国 SPXS/US

大規模コンステレーション

Loading constellations...